Time,TemperatureF,DewpointF,PressureIn,WindDirection,WindDirectionDegrees,WindSpeedMPH,WindSpeedGustMPH,Humidity,HourlyPrecipIn,Conditions,Clouds,dailyrainin,SoftwareType,DateUTC
2013-05-22 00:06:00,51.6,51.0,29.85,WSW,239,0.0,-999.0,98,-99.99,,,0.51,weatherlink.com 1.10,2013-05-22 04:06:00,
2013-05-22 00:21:00,51.6,51.0,29.84,South,186,1.0,-999.0,99,-99.99,,,0.51,weatherlink.com 1.10,2013-05-22 04:21:00,
2013-05-22 00:36:00,51.4,51.0,29.82,SE,127,0.0,-999.0,99,-99.99,,,0.51,weatherlink.com 1.10,2013-05-22 04:36:00,
2013-05-22 00:51:00,51.1,51.0,29.81,SE,127,0.0,-999.0,98,-99.99,,,0.00,weatherlink.com 1.10,2013-05-22 04:51:00,
2013-05-22 01:06:00,50.9,51.0,29.82,SE,127,0.0,-999.0,99,-99.99,,,0.00,weatherlink.com 1.10,2013-05-22 05:06:00,
2013-05-22 01:21:00,50.8,51.0,29.82,SE,127,0.0,-999.0,99,-99.99,,,0.00,weatherlink.com 1.10,2013-05-22 05:21:00,
2013-05-22 01:36:00,50.8,51.0,29.83,SE,127,0.0,-999.0,99,-99.99,,,0.00,weatherlink.com 1.10,2013-05-22 05:36:00,
2013-05-22 01:52:00,50.8,51.0,29.86,SSE,161,0.0,-999.0,99,-99.99,,,0.00,weatherlink.com 1.10,2013-05-22 05:52:00,
2013-05-22 02:07:00,50.6,50.0,29.88,SE,126,0.0,-999.0,99,-99.99,,,0.00,weatherlink.com 1.10,2013-05-22 06:07:00,
2013-05-22 02:22:00,50.4,50.0,29.85,South,170,0.0,-999.0,99,-99.99,,,0.02,weatherlink.com 1.10,2013-05-22 06:22:00,
2013-05-22 02:37:00,50.3,50.0,29.85,South,170,0.0,-999.0,99,-99.99,,,0.05,weatherlink.com 1.10,2013-05-22 06:37:00,
2013-05-22 02:52:00,50.3,50.0,29.84,South,170,0.0,-999.0,99,-99.99,,,0.06,weatherlink.com 1.10,2013-05-22 06:52:00,
2013-05-22 03:07:00,50.1,50.0,29.82,South,170,0.0,-999.0,99,-99.99,,,0.07,weatherlink.com 1.10,2013-05-22 07:07:00,
2013-05-22 03:22:00,49.9,50.0,29.81,South,170,0.0,-999.0,99,-99.99,,,0.08,weatherlink.com 1.10,2013-05-22 07:22:00,
2013-05-22 03:37:00,49.9,50.0,29.80,South,170,0.0,-999.0,99,-99.99,,,0.09,weatherlink.com 1.10,2013-05-22 07:37:00,
2013-05-22 03:52:00,49.9,50.0,29.80,South,170,0.0,-999.0,99,-99.99,,,0.12,weatherlink.com 1.10,2013-05-22 07:52:00,
2013-05-22 04:07:00,50.1,50.0,29.81,South,170,0.0,-999.0,99,-99.99,,,0.14,weatherlink.com 1.10,2013-05-22 08:07:00,
2013-05-22 04:22:00,50.1,50.0,29.82,South,171,0.0,-999.0,99,-99.99,,,0.14,weatherlink.com 1.10,2013-05-22 08:22:00,
2013-05-22 04:37:00,50.0,50.0,29.82,South,175,0.0,-999.0,99,-99.99,,,0.16,weatherlink.com 1.10,2013-05-22 08:37:00,
2013-05-22 04:52:00,49.9,50.0,29.81,South,175,0.0,-999.0,99,-99.99,,,0.16,weatherlink.com 1.10,2013-05-22 08:52:00,
2013-05-22 05:07:00,49.9,50.0,29.81,South,175,0.0,-999.0,99,-99.99,,,0.16,weatherlink.com 1.10,2013-05-22 09:07:00,
2013-05-22 05:22:00,49.9,50.0,29.81,South,175,0.0,-999.0,99,-99.99,,,0.16,weatherlink.com 1.10,2013-05-22 09:22:00,
2013-05-22 05:37:00,50.0,50.0,29.82,South,175,0.0,-999.0,99,-99.99,,,0.16,weatherlink.com 1.10,2013-05-22 09:37:00,
2013-05-22 05:52:00,50.1,50.0,29.82,South,175,0.0,-999.0,99,-99.99,,,0.16,weatherlink.com 1.10,2013-05-22 09:52:00,
2013-05-22 06:07:00,50.1,50.0,29.83,South,176,0.0,-999.0,99,-99.99,,,0.16,weatherlink.com 1.10,2013-05-22 10:07:00,
2013-05-22 06:22:00,50.1,50.0,29.82,South,176,0.0,-999.0,99,-99.99,,,0.16,weatherlink.com 1.10,2013-05-22 10:22:00,
2013-05-22 06:37:00,50.2,50.0,29.83,SSW,208,0.0,-999.0,99,-99.99,,,0.16,weatherlink.com 1.10,2013-05-22 10:37:00,
2013-05-22 06:52:00,50.3,50.0,29.83,SSW,208,0.0,-999.0,99,-99.99,,,0.16,weatherlink.com 1.10,2013-05-22 10:52:00,
2013-05-22 07:07:00,50.5,51.0,29.84,SSW,208,0.0,-999.0,100,-99.99,,,0.16,weatherlink.com 1.10,2013-05-22 11:07:00,
2013-05-22 07:22:00,50.5,51.0,29.84,SSW,208,0.0,-999.0,100,-99.99,,,0.16,weatherlink.com 1.10,2013-05-22 11:22:00,
2013-05-22 07:37:00,50.7,51.0,29.84,SSW,208,0.0,-999.0,100,-99.99,,,0.16,weatherlink.com 1.10,2013-05-22 11:37:00,
2013-05-22 07:52:00,50.8,51.0,29.84,SSW,208,0.0,-999.0,100,-99.99,,,0.16,weatherlink.com 1.10,2013-05-22 11:52:00,
2013-05-22 08:07:00,51.2,51.0,29.84,South,178,0.0,-999.0,100,-99.99,,,0.16,weatherlink.com 1.10,2013-05-22 12:07:00,
2013-05-22 08:22:00,51.4,51.0,29.85,South,178,0.0,-999.0,100,-99.99,,,0.16,weatherlink.com 1.10,2013-05-22 12:22:00,
2013-05-22 08:37:00,51.6,52.0,29.84,South,178,0.0,-999.0,100,-99.99,,,0.16,weatherlink.com 1.10,2013-05-22 12:37:00,
2013-05-22 08:52:00,51.9,52.0,29.85,South,178,0.0,-999.0,100,-99.99,,,0.16,weatherlink.com 1.10,2013-05-22 12:52:00,
2013-05-22 09:07:00,52.5,53.0,29.85,South,178,0.0,-999.0,100,-99.99,,,0.16,weatherlink.com 1.10,2013-05-22 13:07:00,
2013-05-22 09:22:00,53.2,53.0,29.84,South,178,0.0,-999.0,100,-99.99,,,0.16,weatherlink.com 1.10,2013-05-22 13:22:00,
2013-05-22 09:37:00,53.6,54.0,29.84,South,178,0.0,-999.0,100,-99.99,,,0.16,weatherlink.com 1.10,2013-05-22 13:37:00,
2013-05-22 09:52:00,54.4,54.0,29.84,South,178,0.0,-999.0,100,-99.99,,,0.16,weatherlink.com 1.10,2013-05-22 13:52:00,
2013-05-22 10:07:00,55.2,55.0,29.84,South,178,0.0,-999.0,100,-99.99,,,0.16,weatherlink.com 1.10,2013-05-22 14:07:00,
2013-05-22 10:22:00,55.9,56.0,29.84,South,178,0.0,-999.0,100,-99.99,,,0.16,weatherlink.com 1.10,2013-05-22 14:22:00,
2013-05-22 10:37:00,56.6,57.0,29.85,South,178,0.0,-999.0,100,-99.99,,,0.16,weatherlink.com 1.10,2013-05-22 14:37:00,
2013-05-22 10:52:00,57.4,57.0,29.85,South,178,1.0,-999.0,100,-99.99,,,0.16,weatherlink.com 1.10,2013-05-22 14:52:00,
2013-05-22 11:07:00,57.8,58.0,29.85,South,178,0.0,-999.0,99,-99.99,,,0.16,weatherlink.com 1.10,2013-05-22 15:07:00,
2013-05-22 11:22:00,58.4,58.0,29.85,South,178,0.0,-999.0,98,-99.99,,,0.16,weatherlink.com 1.10,2013-05-22 15:22:00,
2013-05-22 11:37:00,59.0,59.0,29.86,SSW,209,0.0,-999.0,98,-99.99,,,0.16,weatherlink.com 1.10,2013-05-22 15:37:00,
2013-05-22 11:52:00,59.0,58.0,29.85,SSW,209,0.0,-999.0,97,-99.99,,,0.16,weatherlink.com 1.10,2013-05-22 15:52:00,
2013-05-22 12:07:00,59.5,58.0,29.85,SW,223,0.0,-999.0,96,-99.99,,,0.16,weatherlink.com 1.10,2013-05-22 16:07:00,
2013-05-22 12:22:00,60.1,59.0,29.84,SW,223,0.0,-999.0,95,-99.99,,,0.16,weatherlink.com 1.10,2013-05-22 16:22:00,
2013-05-22 12:37:00,62.0,60.0,29.84,WNW,285,0.0,-999.0,94,-99.99,,,0.16,weatherlink.com 1.10,2013-05-22 16:37:00,
2013-05-22 12:53:00,64.1,62.0,29.84,West,279,0.0,-999.0,93,-99.99,,,0.16,weatherlink.com 1.10,2013-05-22 16:53:00,
2013-05-22 13:08:00,65.7,63.0,29.82,SW,219,0.0,-999.0,91,-99.99,,,0.16,weatherlink.com 1.10,2013-05-22 17:08:00,
2013-05-22 13:23:00,67.4,63.0,29.82,NW,316,1.0,-999.0,86,-99.99,,,0.16,weatherlink.com 1.10,2013-05-22 17:23:00,
2013-05-22 13:38:00,68.1,63.0,29.82,WSW,243,0.0,-999.0,84,-99.99,,,0.16,weatherlink.com 1.10,2013-05-22 17:38:00,
2013-05-22 13:53:00,68.9,64.0,29.81,SSE,158,0.0,-999.0,84,-99.99,,,0.16,weatherlink.com 1.10,2013-05-22 17:53:00,
2013-05-22 14:08:00,70.0,64.0,29.80,SSW,204,0.0,-999.0,80,-99.99,,,0.16,weatherlink.com 1.10,2013-05-22 18:08:00,
2013-05-22 14:23:00,71.9,65.0,29.80,SSW,205,0.0,-999.0,80,-99.99,,,0.16,weatherlink.com 1.10,2013-05-22 18:23:00,
2013-05-22 14:38:00,73.8,65.0,29.80,SSW,202,1.0,-999.0,75,-99.99,,,0.16,weatherlink.com 1.10,2013-05-22 18:38:00,
2013-05-22 14:53:00,74.5,66.0,29.79,SSW,211,0.0,-999.0,74,-99.99,,,0.16,weatherlink.com 1.10,2013-05-22 18:53:00,
2013-05-22 15:08:00,74.0,66.0,29.79,SSE,157,0.0,-999.0,75,-99.99,,,0.16,weatherlink.com 1.10,2013-05-22 19:08:00,
2013-05-22 15:23:00,72.4,65.0,29.78,SSE,159,1.0,-999.0,77,-99.99,,,0.16,weatherlink.com 1.10,2013-05-22 19:23:00,
2013-05-22 15:38:00,71.6,65.0,29.79,South,180,0.0,-999.0,80,-99.99,,,0.16,weatherlink.com 1.10,2013-05-22 19:38:00,
2013-05-22 15:53:00,70.3,64.0,29.80,South,181,0.0,-999.0,80,-99.99,,,0.16,weatherlink.com 1.10,2013-05-22 19:53:00,
2013-05-22 16:08:00,69.2,64.0,29.80,West,261,0.0,-999.0,82,-99.99,,,0.16,weatherlink.com 1.10,2013-05-22 20:08:00,
2013-05-22 16:24:00,67.9,63.0,29.79,South,180,0.0,-999.0,84,-99.99,,,0.16,weatherlink.com 1.10,2013-05-22 20:24:00,
2013-05-22 16:38:00,67.7,63.0,29.79,SSE,151,0.0,-999.0,86,-99.99,,,0.16,weatherlink.com 1.10,2013-05-22 20:38:00,
2013-05-22 16:53:00,67.6,64.0,29.79,SSE,151,1.0,-999.0,87,-99.99,,,0.16,weatherlink.com 1.10,2013-05-22 20:53:00,
2013-05-22 17:08:00,67.4,64.0,29.80,WNW,296,0.0,-999.0,87,-99.99,,,0.16,weatherlink.com 1.10,2013-05-22 21:08:00,
2013-05-22 17:23:00,66.6,64.0,29.80,WNW,296,0.0,-999.0,91,-99.99,,,0.20,weatherlink.com 1.10,2013-05-22 21:23:00,
2013-05-22 17:38:00,65.2,64.0,29.80,WNW,296,0.0,-999.0,94,-99.99,,,0.22,weatherlink.com 1.10,2013-05-22 21:38:00,
2013-05-22 17:53:00,64.5,63.0,29.80,WNW,296,0.0,-999.0,96,-99.99,,,0.23,weatherlink.com 1.10,2013-05-22 21:53:00,
2013-05-22 18:08:00,64.0,63.0,29.80,WNW,296,0.0,-999.0,96,-99.99,,,0.27,weatherlink.com 1.10,2013-05-22 22:08:00,
2013-05-22 18:38:00,63.2,63.0,29.80,WNW,296,0.0,-999.0,98,-99.99,,,0.30,weatherlink.com 1.10,2013-05-22 22:38:00,
2013-05-22 18:53:00,62.9,62.0,29.81,WNW,296,0.0,-999.0,97,-99.99,,,0.30,weatherlink.com 1.10,2013-05-22 22:53:00,
2013-05-22 19:08:00,62.5,62.0,29.80,WNW,296,0.0,-999.0,98,-99.99,,,0.31,weatherlink.com 1.10,2013-05-22 23:08:00,
2013-05-22 19:23:00,62.3,62.0,29.80,WNW,296,0.0,-999.0,98,-99.99,,,0.31,weatherlink.com 1.10,2013-05-22 23:23:00,
2013-05-22 19:38:00,62.1,62.0,29.80,WNW,296,0.0,-999.0,98,-99.99,,,0.31,weatherlink.com 1.10,2013-05-22 23:38:00,
2013-05-22 19:53:00,61.8,61.0,29.81,WNW,296,0.0,-999.0,98,-99.99,,,0.31,weatherlink.com 1.10,2013-05-22 23:53:00,
2013-05-22 20:08:00,61.4,61.0,29.81,WNW,296,0.0,-999.0,98,-99.99,,,0.31,weatherlink.com 1.10,2013-05-23 00:08:00,
2013-05-22 20:23:00,60.9,60.0,29.81,WNW,296,0.0,-999.0,98,-99.99,,,0.31,weatherlink.com 1.10,2013-05-23 00:23:00,
2013-05-22 20:38:00,60.4,60.0,29.81,WNW,296,0.0,-999.0,98,-99.99,,,0.31,weatherlink.com 1.10,2013-05-23 00:38:00,
2013-05-22 20:53:00,60.2,60.0,29.81,WNW,296,0.0,-999.0,98,-99.99,,,0.31,weatherlink.com 1.10,2013-05-23 00:53:00,
2013-05-22 21:08:00,60.0,60.0,29.81,WNW,296,0.0,-999.0,99,-99.99,,,0.31,weatherlink.com 1.10,2013-05-23 01:08:00,
2013-05-22 21:23:00,59.8,60.0,29.82,WNW,296,0.0,-999.0,99,-99.99,,,0.31,weatherlink.com 1.10,2013-05-23 01:23:00,
2013-05-22 21:38:00,59.5,59.0,29.82,WNW,296,0.0,-999.0,99,-99.99,,,0.31,weatherlink.com 1.10,2013-05-23 01:38:00,
2013-05-22 21:53:00,59.2,59.0,29.82,WNW,296,0.0,-999.0,99,-99.99,,,0.31,weatherlink.com 1.10,2013-05-23 01:53:00,
2013-05-22 22:08:00,59.0,59.0,29.81,WNW,296,0.0,-999.0,99,-99.99,,,0.31,weatherlink.com 1.10,2013-05-23 02:08:00,
2013-05-22 22:23:00,58.8,59.0,29.81,WNW,296,0.0,-999.0,99,-99.99,,,0.31,weatherlink.com 1.10,2013-05-23 02:23:00,
2013-05-22 22:41:00,58.5,58.0,29.81,WNW,296,0.0,-999.0,99,-99.99,,,0.31,weatherlink.com 1.10,2013-05-23 02:41:00,
2013-05-22 22:53:00,58.2,58.0,29.80,WNW,296,0.0,-999.0,99,-99.99,,,0.31,weatherlink.com 1.10,2013-05-23 02:53:00,
2013-05-22 23:08:00,58.0,58.0,29.79,WNW,296,0.0,-999.0,99,-99.99,,,0.31,weatherlink.com 1.10,2013-05-23 03:08:00,
2013-05-22 23:23:00,57.7,58.0,29.79,WNW,296,0.0,-999.0,99,-99.99,,,0.31,weatherlink.com 1.10,2013-05-23 03:23:00,
2013-05-22 23:38:00,57.6,57.0,29.78,WNW,296,0.0,-999.0,99,-99.99,,,0.31,weatherlink.com 1.10,2013-05-23 03:38:00,
2013-05-22 23:53:00,57.4,57.0,29.78,NW,304,0.0,-999.0,99,-99.99,,,0.31,weatherlink.com 1.10,2013-05-23 03:53:00,